FW8727 Weather Reports


time (UTC)temp
F
wind
direction
speed
knots
gust
knots
rain 1hr
in
rain 24hr
in
rain mn
in
humidity
%
barometer
mb
20260505055521 53 270 3.5 7.8 0.00 0.00 0.00 77 1011.0
20260505054520 53 270 3.5 8.7 0.00 0.00 0.00 77 1010.9
20260505053519 53 270 4.3 12.2 0.00 0.00 0.00 77 1010.8
20260505052519 53 248 3.5 9.6 0.00 0.00 0.00 77 1010.8
20260505051521 53 248 2.6 9.6 0.00 0.00 0.00 78 1011.0
20260505050519 53 270 3.5 10.4 0.00 0.00 0.00 78 1011.0
20260505041519 53 248 4.3 12.2 0.00 0.00 0.00 75 1011.1
20260505040519 54 225 5.2 12.2 0.00 0.00 0.00 74 1011.0
20260505040019 54 225 3.5 8.7 0.00 0.00 0.00 74 1011.0
20260505035018 54 248 3.5 12.2 0.00 0.00 0.00 73 1010.8
20260505034019 55 248 4.3 10.4 0.00 0.00 0.00 72 1010.8
20260505033517 55 248 3.5 10.4 0.00 0.00 0.00 72 1010.9
20260505032517 55 248 2.6 11.3 0.00 0.00 0.00 70 1010.8
20260505031520 55 270 3.5 8.7 0.00 0.00 0.00 70 1010.8
20260505030521 56 270 2.6 9.6 0.00 0.00 0.00 69 1010.8
20260505025523 56 270 4.3 12.2 0.00 0.00 0.00 69 1010.8
20260505024519 56 248 3.5 10.4 0.00 0.00 0.00 69 1010.8
20260505023521 56 270 5.2 13.0 0.00 0.00 0.00 68 1010.8
20260505022521 56 270 5.2 13.9 0.00 0.00 0.00 68 1010.8
20260505021520 56 270 7.8 15.6 0.00 0.00 0.00 68 1010.8
20260505020521 56 270 7.8 15.6 0.00 0.00 0.00 68 1010.8
20260505015519 56 270 7.0 17.4 0.00 0.00 0.00 68 1010.6
20260505015019 56 270 7.8 17.4 0.00 0.00 0.00 68 1010.5
20260505014021 56 270 5.2 12.2 0.00 0.00 0.00 68 1010.5
20260505013019 56 270 5.2 13.0 0.00 0.00 0.00 68 1010.3
20260505012021 56 270 5.2 12.2 0.00 0.00 0.00 67 1010.1
20260505011025 57 270 7.8 17.4 0.00 0.00 0.00 66 1009.8
20260505010017 58 270 7.8 14.8 0.00 0.00 0.00 63 1009.6
20260505005021 59 270 6.1 15.6 0.00 0.00 0.00 62 1009.4
20260505004019 59 248 5.2 12.2 0.00 0.00 0.00 61 1009.4
20260505003041 59 270 5.2 11.3 0.00 0.00 0.00 60 1009.1
20260505002021 60 248 5.2 13.9 0.00 0.00 0.00 58 1008.8
20260505001019 61 248 7.8 16.5 0.00 0.00 0.00 57 1008.4
20260505000021 60 248 7.0 18.2 0.00 0.00 0.00 60 1008.4
20260504235019 60 248 8.7 16.5 0.00 0.00 0.00 60 1008.3
20260504234019 60 270 7.0 13.9 0.00 0.00 0.00 61 1008.2
20260504233019 59 248 7.0 19.1 0.00 0.00 0.00 63 1007.9
20260504232021 60 248 7.8 17.4 0.00 0.00 0.00 60 1007.8
20260504231018 60 225 6.1 14.8 0.00 0.00 0.00 62 1007.6
20260504230019 59 225 5.2 12.2 0.00 0.00 0.00 64 1007.6
20260504225019 60 248 6.1 13.9 0.00 0.00 0.00 62 1007.6
20260504224542 60 248 6.1 17.4 0.00 0.00 0.00 61 1007.5
20260504223609 59 225 5.2 12.2 0.00 0.00 0.00 63 1007.4
20260504222519 60 225 5.2 15.6 0.00 0.00 0.00 62 1007.3
20260504221542 60 248 6.1 17.4 0.00 0.00 0.00 61 1007.3
20260504220521 61 248 3.5 13.0 0.00 0.00 0.00 58 1007.3
20260504215521 62 225 4.3 11.3 0.00 0.00 0.00 55 1007.2
20260504214519 64 225 5.2 13.9 0.00 0.00 0.00 51 1007.1
20260504213519 70 203 3.5 10.4 0.00 0.00 0.00 39 1007.0
20260504212519 70 248 3.5 9.6 0.00 0.00 0.00 38 1006.9
20260504211519 70 248 3.5 12.2 0.00 0.00 0.00 39 1006.9
20260504210519 70 225 3.5 9.6 0.00 0.00 0.00 39 1006.8
20260504205521 70 248 4.3 10.4 0.00 0.00 0.00 40 1006.9
20260504204559 71 225 1.7 7.8 0.00 0.00 0.00 37 1007.0
20260504203521 71 248 5.2 13.0 0.00 0.00 0.00 34 1006.9
20260504202519 71 248 4.3 11.3 0.00 0.00 0.00 37 1006.9
20260504201519 72 248 5.2 13.0 0.00 0.00 0.00 35 1007.0
20260504200519 71 270 8.7 17.4 0.00 0.00 0.00 33 1006.8
20260504195607 71 248 4.3 11.3 0.00 0.00 0.00 37 1006.8
20260504194519 71 270 7.8 17.4 0.00 0.00 0.00 32 1006.9
20260504193518 73 270 5.2 12.2 0.00 0.00 0.00 32 1006.8
20260504192521 72 270 7.0 13.9 0.00 0.00 0.00 34 1006.9
20260504191521 71 270 6.1 13.0 0.00 0.00 0.00 35 1006.8
20260504190521 71 270 8.7 21.7 0.00 0.00 0.00 33 1007.2
20260504185605 71 270 6.1 11.3 0.00 0.00 0.00 35 1007.0
20260504184627 70 270 7.0 16.5 0.00 0.00 0.00 35 1007.3
20260504184123 70 248 7.8 14.8 0.00 0.00 0.00 34 1007.1
20260504182734 70 270 9.6 21.7 0.00 0.00 0.00 34 1007.4
20260504174519 69 270 10.4 22.6 0.00 0.00 0.00 36 1007.6
20260504174101 69 270 10.4 26.1 0.00 0.00 0.00 35 1007.7
20260504171810 68 270 7.8 16.5 0.00 0.00 0.00 40 1007.7
20260504150518 64 225 4.3 10.4 0.00 0.01 0.00 49 1009.4
20260504140520 63 270 7.8 13.9 0.00 0.02 0.00 45 1009.9
20260504130518 56 270 2.6 7.8 0.00 0.02 0.00 56 1010.4
20260504110538 50 270 1.7 6.1 0.00 0.02 0.00 61 1011.1
20260504100520 48 270 1.7 7.0 0.00 0.02 0.00 61 1010.9
20260504081541 49 293 4.3 10.4 0.00 0.02 0.00 55 1010.7
20260504080542 49 270 6.1 10.4 0.00 0.02 0.00 54 1010.6